Flag for Germany Weather past 2 weeks in Elmshorn, Schleswig-Holstein, Germany

50 °F

Partly sunny.

Feels Like: 47 °F
Forecast: 39 / 51 °F
Wind: 7 mph from East

Location: Hamburg-Fuhlsbuettel

Current Time: Oct 9, 2015 at 1:25:23 PM

Latest Report: Oct 9, 2015 at 12:50 PM

Visibility: 5 mi

Pressure: 30.21 "Hg

Humidity: 94%

Dew point: 48 °F

Location of ElmshornLocation

Historic Weather in Elmshorn — Graph


Elmshorn temperature yesterday

Maximum temperature yesterday: 59 °F (at 12:20 PM)
Minimum temperature yesterday: 52 °F (at 11:20 PM)
Average temperature yesterday: 56 °F

Past Weeks' High & Low Weather Summary

High66 °F (Oct 3, 3:20 PM)100% (Sep 25, 1:20 AM)30.72 "Hg (Sep 25, 1:20 AM)
Low37 °F (Sep 29, 5:20 AM)49% (Oct 3, 3:20 PM)29.71 "Hg (Oct 6, 11:50 AM)
Average53 °F86%30.23 "Hg
* Reported Sep 24 12:20 PM — Oct 9 12:20 PM, Elmshorn, Weather by CustomWeather, © 2015

Note: Actual official high and low records may vary slightly from our data, if they occured in-between our weather recording intervals... More about our weather records


Elmshorn weather history for previous 24 hours

Time TempWeatherWind HumidityBarometerVisibility
12:20 PM
Fri, Oct 9
50 °FPartly sunny.8 mph94%30.18 "Hg5 mi
11:50 AM50 °FPartly sunny.8 mph94%30.21 "HgN/A
11:20 AM50 °FPartly sunny.7 mph94%30.18 "HgN/A
10:50 AM50 °FPartly sunny.7 mph94%30.18 "Hg4 mi
10:20 AM48 °FFog.8 mph100%30.18 "Hg3 mi
9:50 AM48 °FDrizzle. Fog.7 mph100%30.18 "Hg1 mi
9:20 AM48 °FDrizzle. Fog.7 mph100%30.18 "Hg1 mi
8:50 AM48 °FDrizzle. Fog.7 mph100%30.18 "Hg1 mi
8:20 AM48 °FDrizzle. Fog.6 mph100%30.15 "Hg1 mi
7:50 AM50 °FDrizzle. Fog.6 mph94%30.15 "Hg2 mi
7:20 AM50 °FDrizzle. Fog.5 mph94%30.15 "Hg2 mi
6:50 AM50 °FFog.6 mph94%30.15 "Hg2 mi
6:20 AM50 °FFog.6 mph94%30.15 "Hg2 mi
5:50 AM50 °FFog.5 mph94%30.15 "Hg3 mi
5:20 AM50 °FPassing clouds.3 mph94%30.15 "Hg4 mi
4:50 AM50 °FPassing clouds.3 mph100%30.15 "Hg6 mi
4:20 AM50 °FPassing clouds.5 mph100%30.15 "Hg6 mi
3:50 AM50 °FPassing clouds.3 mph100%30.15 "Hg6 mi
3:20 AM50 °FPassing clouds.5 mph100%30.15 "Hg6 mi
2:50 AM50 °FPassing clouds.3 mph100%30.15 "Hg6 mi
2:20 AM50 °FPassing clouds.6 mph100%30.15 "Hg5 mi
1:50 AM50 °FPassing clouds.6 mph100%30.15 "Hg4 mi
1:20 AM50 °FCool.8 mph100%30.15 "HgN/A
12:50 AM52 °FPassing clouds.7 mph94%30.15 "Hg4 mi
12:20 AM52 °FPassing clouds.8 mph94%30.15 "Hg4 mi
11:50 PM
Thu, Oct 8
52 °FPassing clouds.7 mph100%30.15 "Hg4 mi
11:20 PM52 °FPassing clouds.7 mph100%30.15 "Hg4 mi
10:50 PM54 °FPassing clouds.6 mph94%30.12 "Hg4 mi
10:20 PM54 °FDrizzle. Fog.6 mph94%30.12 "Hg3 mi
9:50 PM54 °FDrizzle. Fog.6 mph100%30.12 "Hg3 mi
9:20 PM54 °FPassing clouds.7 mph100%30.12 "Hg3 mi
8:50 PM54 °FPassing clouds.5 mph100%30.12 "Hg3 mi
8:20 PM55 °FPassing clouds.5 mph94%30.12 "Hg4 mi
7:50 PM55 °FPassing clouds.6 mph94%30.12 "Hg4 mi
7:20 PM55 °FPartly sunny.6 mph100%30.09 "Hg4 mi
6:50 PM55 °FFog.6 mph100%30.09 "Hg3 mi
6:20 PM57 °FDrizzle. Fog.6 mph94%30.09 "Hg2 mi
5:50 PM57 °FDrizzle. Fog.3 mph94%30.09 "Hg2 mi
5:20 PM57 °FDrizzle. Fog.3 mph94%30.09 "Hg2 mi
4:50 PM57 °FDrizzle. Fog.6 mph94%30.09 "Hg2 mi
4:20 PM57 °FDrizzle. Fog.6 mph94%30.09 "Hg2 mi
3:50 PM57 °FFog.6 mph94%30.07 "Hg3 mi
3:20 PM57 °FDrizzle. Fog.5 mph94%30.07 "Hg3 mi
2:50 PM57 °FFog.6 mph94%30.07 "Hg3 mi
2:20 PM55 °FDrizzle. Fog.7 mph100%30.07 "Hg2 mi
1:50 PM57 °FDrizzle. Fog.6 mph94%30.07 "Hg2 mi
1:20 PM57 °FFog.6 mph94%30.07 "Hg2 mi
Weather by CustomWeather, © 2015

See weather overviewHow to use our weather pages